GFSSW_500_temp_000.txt.gz
Temp
-2 -1 -0 -0 -0 -0 -0 -0 -1 -1 -1 -1 -1 -1 -2 -2 -3 -3 -4 -4 -5 -5 -6 -6 -7 -7 -6 -7 -7 -7 -6 -7 -6 -6 -7 -8 -6 -6 -5 -5 -6 -6 -5 -6 -7
-2 -2 -1 -0 -0 -0 -0 -0 -0 -1 -1 -1 -1 -1 -2 -2 -2 -3 -3 -4 -4 -5 -5 -6 -7 -7 -6 -7 -7 -7 -7 -7 -6 -7 -7 -7 -7 -7 -7 -5 -5 -6 -6 -6 -7
-2 -2 -2 -1 -0 -0 -0 -0 -0 -0 -1 -1 -1 -1 -2 -2 -2 -2 -3 -4 -4 -5 -5 -5 -6 -7 -8 -8 -7 -7 -7 -7 -6 -7 -7 -7 -7 -7 -5 -6 -6 -6 -6 -6 -7
-3 -2 -2 -1 -0 -0 -0 -0 -0 -0 -0 -1 -1 -1 -1 -2 -2 -2 -2 -4 -4 -4 -4 -5 -6 -6 -8 -7 -7 -7 -7 -7 -5 -6 -7 -8 -7 -5 -7 -5 -6 -6 -6 -6 -6
-4 -4 -3 -2 -2 -0 -0 -0 -0 -0 -0 -1 -1 -1 -1 -1 -2 -2 -2 -3 -4 -4 -5 -5 -6 -6 -7 -7 -7 -7 -7 -7 -6 -7 -7 -5 -5 -5 -5 -5 -6 -5 -5 -6 -6
-5 -4 -4 -3 -2 -2 -1 -0 -0 -0 -0 -0 -1 -1 -1 -1 -2 -2 -2 -2 -4 -4 -4 -4 -5 -7 -7 -7 -7 -7 -7 -8 -8 -6 -7 -5 -5 -5 -5 -5 -6 -6 -6 -6 -6
-5 -5 -5 -4 -3 -2 -2 -1 -1 -1 -0 -0 -1 -1 -1 -1 -2 -2 -2 -2 -3 -4 -4 -5 -4 -8 -7 -7 -7 -8 -7 -8 -7 -7 -6 -5 -5 -5 -5 -5 -5 -5 -6 -6 -6
-6 -5 -5 -5 -4 -3 -2 -2 -1 -1 -1 -1 -1 -1 -1 -2 -1 -2 -2 -2 -2 -3 -4 -4 -4 -6 -7 -7 -8 -8 -7 -7 -7 -6 -7 -7 -5 -5 -5 -5 -5 -5 -6 -6 -6
-6 -6 -5 -5 -5 -4 -4 -2 -1 -1 -1 -1 -1 -1 -1 -1 -2 -2 -2 -2 -3 -3 -4 -3 -4 -4 -7 -7 -7 -7 -7 -6 -7 -6 -6 -5 -5 -5 -5 -5 -5 -6 -6 -6 -6
-7 -6 -6 -5 -6 -5 -4 -4 -2 -2 -1 -1 -1 -1 -1 -2 -2 -2 -2 -2 -3 -3 -4 -4 -4 -4 -7 -7 -7 -6 -6 -7 -6 -6 -6 -6 -6 -6 -5 -6 -6 -5 -6 -6 -6
-7 -7 -6 -6 -6 -6 -5 -5 -4 -2 -1 -1 -1 -1 -1 -1 -2 -2 -2 -2 -2 -3 -3 -4 -4 -4 -7 -7 -7 -6 -6 -6 -6 -7 -6 -6 -7 -6 -6 -6 -6 -6 -6 -6 -7
-8 -8 -7 -7 -7 -7 -6 -6 -5 -4 -3 -2 -1 -2 -1 -2 -2 -2 -2 -2 -2 -2 -4 -4 -4 -5 -7 -7 -7 -6 -6 -6 -7 -7 -7 -6 -6 -6 -6 -6 -6 -6 -6 -6 -6
-9 -8 -8 -7 -7 -7 -7 -7 -6 -5 -4 -3 -2 -2 -2 -2 -2 -2 -2 -2 -2 -3 -3 -3 -4 -6 -7 -7 -7 -6 -6 -6 -7 -7 -7 -7 -7 -6 -8 -7 -6 -6 -6 -6 -6
-9 -9 -9 -8 -7 -8 -8 -7 -7 -6 -4 -4 -3 -3 -2 -2 -2 -2 -2 -2 -2 -3 -3 -4 -5 -7 -7 -7 -7 -7 -7 -6 -6 -7 -7 -7 -6 -7 -6 -7 -6 -7 -6 -6 -6
-10 -10 -9 -9 -8 -9 -8 -9 -8 -7 -6 -6 -5 -4 -4 -3 -3 -2 -3 -3 -3 -3 -4 -4 -7 -7 -7 -7 -7 -7 -7 -7 -6 -7 -7 -7 -7 -7 -7 -6 -7 -6 -6 -6 -6
-10 -10 -10 -9 -9 -9 -9 -9 -9 -8 -7 -8 -7 -5 -5 -4 -4 -3 -3 -3 -3 -4 -4 -6 -6 -7 -7 -7 -7 -7 -7 -7 -7 -7 -7 -7 -7 -7 -7 -7 -6 -7 -7 -7 -7
-10 -10 -10 -10 -10 -9 -10 -10 -10 -8 -8 -9 -9 -8 -6 -5 -5 -4 -3 -3 -3 -3 -4 -5 -7 -7 -7 -7 -7 -7 -7 -7 -7 -7 -7 -6 -7 -6 -7 -6 -7 -7 -6 -8 -7
-11 -10 -11 -11 -10 -10 -10 -10 -10 -8 -8 -9 -9 -9 -7 -6 -6 -5 -4 -4 -4 -3 -5 -6 -7 -7 -6 -7 -7 -7 -7 -7 -7 -6 -6 -7 -7 -6 -7 -8 -8 -8 -8 -8 -8
-11 -11 -11 -11 -11 -11 -10 -10 -9 -9 -8 -9 -9 -9 -9 -9 -7 -8 -5 -4 -4 -3 -6 -7 -7 -7 -7 -7 -7 -7 -7 -7 -6 -6 -6 -6 -7 -7 -7 -7 -7 -8 -8 -8 -8
-11 -11 -11 -11 -11 -11 -11 -10 -10 -10 -10 -10 -9 -9 -8 -9 -8 -9 -7 -5 -5 -5 -7 -7 -7 -7 -7 -7 -7 -7 -7 -7 -7 -6 -6 -6 -6 -7 -7 -7 -7 -7 -7 -8 -9
-12 -11 -12 -11 -12 -10 -10 -10 -10 -10 -11 -11 -10 -10 -8 -8 -8 -8 -8 -6 -6 -6 -7 -7 -6 -6 -7 -7 -7 -7 -7 -7 -7 -7 -6 -6 -6 -7 -8 -8 -8 -8 -8 -8 -8
-12 -12 -12 -12 -12 -11 -10 -10 -11 -11 -11 -11 -10 -10 -9 -8 -8 -8 -8 -8 -7 -7 -8 -7 -7 -6 -7 -7 -7 -7 -7 -8 -7 -7 -7 -7 -7 -8 -8 -8 -8 -8 -8 -8 -8
-12 -13 -12 -12 -12 -11 -11 -11 -11 -12 -12 -11 -11 -9 -9 -9 -8 -8 -8 -7 -8 -8 -8 -8 -7 -7 -7 -7 -7 -7 -7 -8 -8 -7 -7 -7 -7 -7 -7 -8 -8 -8 -8 -9 -8
-13 -14 -13 -12 -12 -13 -12 -12 -12 -12 -12 -11 -11 -11 -10 -10 -9 -8 -8 -8 -8 -8 -8 -8 -7 -8 -7 -7 -7 -8 -8 -8 -7 -7 -7 -8 -7 -8 -8 -8 -8 -8 -7 -8 -8
-13 -15 -15 -12 -13 -13 -13 -13 -13 -13 -13 -12 -11 -11 -11 -10 -9 -9 -8 -8 -8 -7 -8 -8 -8 -8 -8 -7 -7 -8 -8 -8 -8 -8 -8 -8 -8 -8 -8 -9 -8 -8 -8 -8 -9
-13 -14 -13 -13 -12 -12 -13 -13 -12 -12 -13 -12 -12 -12 -11 -10 -10 -9 -9 -8 -8 -8 -8 -8 -9 -9 -9 -8 -8 -8 -7 -8 -8 -8 -7 -8 -8 -9 -9 -9 -8 -7 -8 -8 -8
-15 -14 -15 -15 -14 -13 -13 -13 -13 -12 -12 -12 -12 -12 -11 -11 -10 -9 -9 -9 -8 -9 -8 -8 -8 -9 -9 -9 -8 -8 -7 -7 -7 -8 -8 -8 -8 -8 -8 -8 -7 -7 -8 -8 -8

GFSSW_500_temp_003.txt.gz
Temp
-2 -2 -1 -0 -0 -0 -0 -0 -1 -0 -1 -1 -1 -2 -2 -2 -3 -3 -4 -4 -4 -5 -5 -7 -8 -7 -7 -6 -7 -6 -7 -7 -7 -7 -7 -5 -5 -4 -4 -4 -5 -5 -5 -6 -6
-2 -2 -1 -1 -1 -0 -0 -0 -0 -0 -0 -1 -1 -1 -2 -2 -2 -3 -3 -4 -4 -5 -4 -6 -7 -7 -7 -8 -7 -7 -7 -7 -7 -7 -7 -6 -5 -5 -5 -5 -5 -5 -5 -6 -6
-3 -2 -2 -1 -0 -0 -0 -0 -0 -0 -0 -0 -1 -1 -1 -2 -2 -2 -3 -3 -4 -4 -4 -5 -6 -6 -7 -7 -8 -8 -7 -8 -7 -7 -7 -5 -4 -5 -6 -5 -4 -5 -6 -6 -7
-4 -3 -2 -2 -1 -1 -0 -0 -0 -0 -0 -0 -1 -1 -1 -2 -2 -2 -2 -3 -4 -3 -4 -5 -6 -6 -7 -7 -8 -7 -7 -7 -7 -6 -5 -5 -6 -5 -5 -5 -5 -5 -6 -6 -6
-4 -4 -3 -2 -2 -1 -1 -0 -0 -0 -0 -0 -0 -1 -1 -1 -2 -2 -2 -2 -3 -3 -4 -5 -6 -5 -7 -7 -7 -8 -7 -7 -7 -6 -5 -6 -5 -5 -5 -5 -5 -5 -6 -6 -7
-4 -4 -4 -3 -2 -2 -1 -1 -0 -0 -0 -0 -0 -0 -1 -1 -2 -2 -2 -2 -3 -3 -4 -4 -6 -4 -7 -7 -7 -7 -7 -7 -7 -6 -6 -5 -5 -5 -5 -5 -5 -5 -6 -6 -6
-5 -5 -4 -4 -4 -2 -2 -1 -1 -0 -0 -0 -0 -0 -1 -1 -1 -2 -2 -2 -3 -3 -4 -5 -5 -4 -7 -7 -7 -8 -7 -7 -6 -6 -5 -5 -5 -5 -5 -5 -5 -6 -6 -6 -6
-5 -5 -5 -5 -4 -4 -3 -3 -2 -1 -0 -0 -0 -0 -0 -1 -1 -2 -2 -2 -2 -2 -4 -4 -5 -3 -6 -7 -7 -7 -7 -7 -5 -6 -6 -5 -5 -5 -5 -5 -5 -6 -6 -6 -6
-6 -5 -5 -5 -5 -4 -4 -3 -3 -2 -1 -0 -0 -0 -1 -1 -2 -2 -2 -3 -3 -3 -3 -3 -4 -4 -5 -7 -7 -7 -6 -7 -6 -6 -6 -6 -5 -5 -6 -5 -5 -5 -5 -6 -6
-6 -6 -6 -6 -6 -5 -4 -4 -3 -3 -2 -0 -1 -1 -1 -1 -2 -2 -2 -2 -2 -3 -3 -3 -3 -4 -4 -5 -6 -6 -7 -7 -7 -7 -7 -6 -5 -6 -6 -6 -6 -5 -5 -6 -6
-6 -7 -7 -6 -6 -6 -6 -5 -4 -3 -3 -2 -1 -1 -1 -1 -2 -2 -2 -2 -2 -2 -3 -3 -4 -3 -5 -4 -6 -7 -6 -6 -7 -7 -7 -6 -5 -5 -5 -6 -6 -6 -6 -5 -6
-7 -7 -7 -7 -7 -7 -7 -6 -4 -4 -3 -3 -2 -1 -1 -1 -1 -2 -2 -2 -2 -2 -3 -3 -3 -4 -5 -6 -6 -7 -7 -6 -6 -7 -7 -6 -6 -6 -5 -5 -6 -7 -6 -6 -5
-7 -8 -8 -8 -8 -8 -8 -6 -5 -4 -3 -4 -3 -2 -1 -1 -1 -2 -2 -2 -2 -3 -3 -2 -3 -6 -5 -7 -7 -6 -7 -6 -6 -7 -6 -7 -7 -6 -6 -6 -6 -6 -7 -6 -6
-8 -8 -8 -8 -8 -9 -8 -7 -8 -6 -4 -5 -4 -3 -2 -2 -1 -2 -3 -2 -2 -2 -3 -3 -4 -5 -5 -7 -7 -6 -6 -6 -6 -6 -6 -7 -7 -6 -7 -7 -7 -6 -7 -7 -6
-8 -9 -9 -9 -9 -9 -8 -9 -8 -6 -6 -6 -5 -5 -5 -3 -2 -2 -3 -3 -3 -2 -3 -3 -4 -5 -6 -7 -7 -7 -7 -6 -6 -7 -7 -7 -7 -7 -7 -7 -7 -8 -7 -7 -6
-8 -9 -10 -9 -10 -9 -10 -10 -8 -7 -8 -8 -7 -5 -5 -4 -4 -3 -3 -3 -3 -3 -3 -4 -5 -5 -5 -7 -7 -7 -7 -7 -6 -6 -7 -6 -7 -7 -7 -7 -7 -7 -6 -7 -7
-9 -9 -10 -10 -10 -10 -10 -10 -9 -7 -8 -9 -9 -7 -7 -6 -5 -4 -4 -4 -3 -3 -3 -4 -4 -5 -7 -8 -7 -7 -7 -7 -7 -7 -6 -6 -7 -7 -7 -7 -8 -7 -7 -6 -7
-9 -10 -10 -11 -11 -10 -10 -10 -9 -7 -9 -9 -10 -9 -8 -7 -6 -6 -5 -4 -4 -4 -3 -3 -4 -4 -7 -7 -7 -7 -7 -7 -7 -7 -7 -7 -7 -7 -7 -7 -7 -7 -8 -8 -8
-9 -10 -11 -11 -11 -11 -11 -10 -8 -9 -9 -9 -9 -9 -9 -9 -7 -7 -6 -5 -5 -4 -4 -4 -4 -6 -7 -7 -7 -7 -7 -7 -7 -7 -7 -6 -6 -6 -7 -7 -7 -7 -8 -8 -8
-10 -10 -11 -11 -11 -11 -11 -10 -9 -9 -9 -9 -9 -10 -10 -9 -9 -9 -8 -6 -6 -6 -5 -5 -7 -6 -7 -7 -7 -7 -7 -7 -7 -7 -7 -6 -6 -6 -7 -7 -7 -8 -7 -8 -8
-10 -11 -11 -11 -12 -11 -10 -10 -10 -10 -9 -10 -9 -10 -10 -9 -8 -9 -8 -8 -7 -6 -6 -6 -7 -7 -7 -7 -7 -7 -7 -7 -7 -7 -7 -7 -7 -7 -7 -8 -8 -8 -7 -8 -8
-11 -12 -11 -12 -12 -11 -10 -10 -11 -10 -10 -11 -10 -10 -10 -9 -8 -9 -8 -9 -8 -7 -7 -6 -7 -7 -7 -7 -7 -7 -6 -7 -8 -7 -7 -7 -7 -8 -7 -7 -7 -7 -8 -7 -8
-12 -13 -12 -12 -12 -11 -11 -11 -11 -11 -11 -11 -11 -10 -10 -9 -9 -9 -8 -8 -8 -8 -6 -7 -7 -7 -7 -7 -7 -7 -7 -7 -7 -7 -7 -7 -7 -7 -7 -7 -8 -8 -8 -9 -9
-13 -13 -13 -12 -12 -13 -12 -11 -11 -11 -11 -11 -10 -12 -11 -10 -9 -9 -8 -8 -8 -8 -7 -7 -7 -7 -7 -7 -8 -7 -7 -7 -7 -7 -7 -7 -8 -7 -7 -8 -8 -8 -9 -9 -8
-14 -14 -13 -12 -12 -12 -12 -12 -11 -11 -11 -11 -11 -11 -11 -10 -9 -9 -8 -8 -8 -8 -8 -7 -8 -8 -7 -7 -7 -7 -8 -8 -8 -8 -8 -8 -8 -8 -8 -8 -8 -8 -9 -8 -8
-15 -14 -14 -14 -14 -14 -13 -12 -12 -11 -11 -11 -13 -11 -11 -11 -11 -9 -8 -8 -8 -8 -8 -8 -8 -8 -8 -7 -8 -9 -8 -8 -9 -8 -8 -7 -7 -7 -7 -8 -9 -8 -8 -8 -8
-15 -15 -14 -15 -15 -14 -15 -13 -14 -13 -12 -12 -12 -13 -12 -12 -11 -10 -9 -9 -8 -8 -8 -8 -8 -8 -8 -8 -7 -8 -8 -8 -8 -7 -8 -8 -8 -8 -8 -8 -8 -7 -7 -8 -8

GFSSW_500_temp_006.txt.gz
Temp
-2 -1 -1 -1 -1 -1 -1 -1 -0 -1 -1 -1 -2 -2 -2 -2 -3 -4 -4 -4 -5 -5 -6 -6 -7 -7 -7 -7 -7 -7 -6 -7 -7 -6 -6 -7 -7 -6 -6 -5 -6 -6 -6 -6 -7
-2 -2 -1 -1 -0 -0 -1 -1 -0 -0 -1 -1 -1 -2 -2 -2 -2 -3 -3 -4 -4 -5 -5 -6 -7 -7 -7 -7 -8 -7 -7 -7 -7 -6 -5 -6 -6 -6 -5 -5 -5 -5 -5 -6 -7
-3 -3 -2 -1 -1 -0 0 -0 -0 -0 -0 -0 -1 -2 -2 -2 -2 -3 -3 -4 -4 -4 -6 -6 -6 -7 -8 -8 -7 -7 -7 -6 -7 -6 -6 -6 -5 -5 -6 -5 -5 -5 -5 -6 -6
-3 -3 -3 -2 -1 -1 -0 0 -0 -0 0 -0 -0 -1 -2 -2 -2 -2 -3 -3 -3 -4 -5 -6 -6 -7 -8 -8 -7 -8 -6 -8 -7 -7 -7 -7 -6 -4 -5 -5 -5 -5 -5 -6 -6
-3 -3 -3 -3 -2 -2 -1 -0 0 -0 -0 0 -0 -1 -2 -2 -1 -2 -2 -3 -3 -5 -6 -7 -6 -7 -7 -8 -7 -7 -6 -7 -7 -7 -7 -7 -6 -5 -5 -5 -6 -5 -5 -6 -6
-4 -4 -3 -3 -3 -2 -2 -1 -0 -0 -0 -0 -0 -0 -1 -1 -2 -2 -2 -3 -4 -5 -6 -6 -6 -7 -7 -8 -7 -8 -7 -8 -7 -7 -7 -6 -6 -5 -5 -5 -5 -5 -5 -6 -6
-5 -4 -4 -4 -3 -3 -3 -2 -1 -1 -0 -0 -0 -0 -1 -1 -2 -2 -2 -2 -4 -4 -5 -6 -6 -7 -7 -8 -8 -8 -7 -7 -6 -6 -7 -6 -6 -5 -5 -5 -5 -6 -6 -6 -6
-5 -5 -5 -4 -4 -3 -3 -3 -2 -1 -1 -0 -0 -0 -1 -1 -1 -2 -2 -2 -3 -4 -4 -5 -6 -6 -6 -7 -8 -8 -7 -6 -6 -6 -7 -6 -6 -5 -5 -5 -6 -5 -6 -6 -6
-5 -5 -5 -5 -5 -4 -4 -3 -3 -2 -1 -1 -1 -0 -0 -1 -2 -2 -2 -3 -2 -4 -4 -4 -4 -5 -5 -5 -7 -8 -7 -6 -6 -7 -7 -6 -6 -6 -5 -5 -5 -6 -6 -6 -6
-5 -5 -5 -5 -5 -5 -5 -4 -3 -2 -1 -2 -1 -1 -1 -1 -1 -2 -2 -3 -2 -4 -4 -4 -4 -4 -5 -4 -5 -8 -7 -6 -6 -6 -7 -6 -6 -6 -6 -6 -6 -6 -6 -6 -6
-5 -6 -6 -5 -6 -6 -5 -4 -3 -3 -3 -2 -2 -2 -1 -1 -1 -1 -2 -3 -3 -2 -3 -3 -4 -4 -4 -4 -6 -7 -7 -6 -7 -7 -7 -7 -7 -6 -6 -6 -6 -6 -6 -6 -5
-6 -6 -6 -6 -6 -6 -6 -5 -5 -3 -3 -3 -3 -3 -2 -1 -1 -1 -1 -2 -2 -2 -2 -3 -4 -4 -5 -6 -6 -7 -7 -7 -7 -7 -7 -6 -7 -6 -6 -6 -6 -7 -6 -6 -6
-6 -6 -7 -7 -7 -7 -6 -6 -5 -4 -3 -5 -3 -3 -3 -2 -2 -2 -1 -2 -2 -2 -2 -2 -4 -5 -6 -6 -7 -7 -8 -8 -7 -7 -7 -7 -7 -6 -6 -7 -7 -7 -6 -5 -6
-6 -7 -7 -7 -7 -8 -7 -8 -7 -5 -4 -5 -3 -4 -3 -3 -2 -3 -2 -2 -2 -2 -2 -3 -5 -5 -6 -6 -6 -7 -7 -7 -7 -7 -7 -7 -7 -7 -6 -6 -6 -7 -7 -6 -6
-7 -7 -7 -8 -8 -8 -8 -9 -8 -7 -6 -6 -6 -4 -5 -3 -4 -3 -3 -2 -2 -2 -2 -2 -4 -4 -5 -5 -6 -7 -7 -7 -7 -7 -7 -7 -7 -7 -7 -6 -6 -7 -7 -7 -6
-7 -7 -8 -8 -9 -9 -9 -10 -9 -8 -7 -8 -7 -7 -6 -5 -4 -5 -4 -3 -3 -3 -3 -3 -4 -5 -5 -6 -6 -7 -7 -7 -7 -7 -7 -7 -7 -7 -7 -7 -7 -7 -7 -6 -7
-8 -8 -8 -8 -8 -9 -10 -10 -10 -8 -8 -9 -9 -9 -9 -7 -6 -5 -5 -4 -3 -3 -3 -4 -4 -5 -5 -6 -6 -7 -7 -7 -7 -7 -7 -7 -7 -7 -7 -7 -7 -7 -7 -7 -7
-9 -8 -8 -9 -8 -9 -10 -10 -9 -8 -9 -10 -10 -9 -9 -10 -8 -7 -5 -5 -4 -4 -4 -4 -4 -4 -5 -6 -6 -7 -7 -7 -7 -7 -6 -6 -7 -6 -7 -7 -7 -7 -7 -7 -7
-9 -9 -9 -9 -9 -9 -10 -10 -9 -9 -10 -11 -10 -10 -9 -10 -10 -9 -7 -5 -5 -4 -5 -4 -4 -5 -5 -6 -6 -7 -7 -7 -7 -7 -7 -7 -7 -7 -7 -7 -7 -7 -7 -7 -7
-10 -10 -10 -10 -10 -10 -10 -10 -10 -10 -10 -11 -11 -11 -11 -11 -11 -11 -9 -7 -6 -5 -5 -5 -5 -5 -6 -7 -7 -7 -7 -7 -8 -7 -7 -7 -7 -7 -7 -7 -7 -7 -7 -7 -7
-10 -11 -10 -10 -10 -10 -9 -10 -10 -11 -10 -10 -10 -11 -11 -11 -11 -11 -10 -9 -7 -7 -6 -6 -6 -6 -7 -7 -7 -7 -8 -8 -7 -7 -7 -7 -7 -7 -7 -7 -7 -7 -8 -8 -8
-11 -11 -12 -11 -10 -10 -10 -10 -11 -11 -11 -10 -10 -11 -11 -10 -10 -10 -10 -9 -8 -8 -7 -6 -7 -7 -6 -7 -7 -8 -7 -8 -7 -8 -7 -7 -7 -7 -7 -7 -7 -8 -8 -8 -7
-12 -12 -12 -12 -11 -11 -12 -11 -11 -11 -11 -10 -11 -11 -11 -10 -10 -10 -10 -10 -9 -9 -8 -8 -8 -7 -7 -7 -7 -7 -7 -7 -8 -7 -7 -7 -7 -7 -7 -7 -7 -8 -8 -7 -7
-13 -13 -12 -12 -12 -12 -11 -11 -11 -11 -10 -10 -11 -12 -11 -10 -11 -10 -10 -10 -9 -9 -8 -8 -8 -7 -6 -6 -7 -7 -7 -7 -7 -8 -7 -7 -7 -7 -7 -8 -8 -8 -8 -7 -8
-14 -14 -14 -12 -13 -13 -12 -11 -11 -11 -11 -12 -10 -11 -12 -10 -10 -10 -10 -9 -9 -9 -9 -8 -8 -8 -7 -7 -7 -8 -8 -7 -8 -7 -8 -7 -7 -7 -7 -7 -7 -8 -8 -8 -8
-15 -15 -15 -15 -14 -13 -13 -13 -12 -12 -11 -12 -11 -12 -12 -11 -11 -11 -10 -9 -9 -9 -8 -8 -8 -8 -7 -7 -8 -7 -7 -7 -8 -8 -8 -8 -8 -8 -8 -8 -8 -8 -8 -8 -7
-16 -15 -16 -15 -15 -14 -14 -13 -13 -12 -12 -12 -11 -10 -11 -10 -11 -10 -10 -9 -9 -9 -8 -8 -8 -8 -8 -8 -8 -9 -8 -8 -8 -8 -8 -8 -7 -8 -8 -8 -8 -8 -8 -8 -8

GFSSW_500_temp_009.txt.gz
Temp
-2 -2 -1 -1 -1 -1 -1 -1 -1 -1 -1 -1 -2 -2 -2 -3 -3 -4 -5 -6 -6 -6 -6 -7 -7 -7 -7 -7 -7 -7 -7 -7 -7 -7 -7 -7 -7 -8 -7 -6 -6 -6 -6 -6 -7
-3 -2 -2 -1 -1 -1 -1 -1 -1 -1 -1 -1 -1 -2 -2 -2 -3 -4 -3 -4 -4 -6 -6 -7 -7 -7 -7 -7 -7 -7 -7 -7 -7 -7 -7 -7 -7 -8 -6 -6 -6 -6 -6 -6 -7
-3 -2 -2 -2 -1 -1 -0 -0 -0 -0 -1 -1 -1 -1 -2 -2 -2 -3 -4 -3 -5 -6 -6 -6 -6 -7 -7 -7 -7 -7 -7 -6 -7 -7 -7 -7 -7 -7 -7 -6 -6 -6 -6 -6 -7
-3 -3 -3 -2 -2 -1 -1 -0 -0 -0 -0 -0 -1 -1 -2 -2 -2 -2 -3 -4 -4 -5 -6 -7 -7 -6 -7 -7 -7 -8 -7 -6 -7 -7 -7 -7 -7 -6 -6 -6 -6 -6 -6 -7 -7
-3 -3 -3 -3 -2 -2 -2 -1 -0 -0 0 0 -0 -1 -2 -2 -2 -2 -2 -3 -3 -5 -6 -7 -6 -8 -8 -8 -7 -7 -7 -7 -7 -7 -6 -7 -6 -6 -5 -5 -5 -6 -6 -7 -7
-4 -3 -3 -3 -3 -3 -2 -2 -1 -1 -0 -0 0 -0 -1 -1 -2 -2 -2 -3 -4 -5 -6 -7 -6 -8 -9 -7 -8 -7 -7 -7 -7 -8 -7 -6 -6 -6 -6 -6 -6 -6 -6 -6 -7
-4 -4 -4 -4 -3 -3 -3 -3 -2 -2 -1 -0 -0 -0 -1 -1 -2 -2 -2 -3 -4 -4 -6 -7 -6 -7 -7 -7 -6 -7 -7 -7 -7 -8 -8 -7 -7 -6 -5 -6 -6 -6 -6 -6 -6
-5 -4 -4 -4 -4 -4 -3 -3 -3 -2 -2 -1 -1 -0 -1 -1 -2 -2 -2 -3 -3 -3 -5 -6 -6 -7 -8 -6 -6 -6 -6 -7 -7 -8 -8 -7 -7 -6 -6 -5 -6 -6 -5 -5 -6
-5 -5 -5 -5 -4 -4 -4 -3 -3 -3 -3 -2 -2 -1 -1 -2 -2 -2 -2 -3 -4 -4 -5 -5 -6 -6 -7 -7 -5 -5 -5 -7 -7 -8 -8 -7 -7 -6 -6 -6 -6 -6 -6 -5 -5
-4 -4 -5 -5 -5 -5 -4 -3 -3 -3 -3 -3 -2 -2 -1 -2 -1 -2 -2 -3 -4 -4 -5 -4 -6 -6 -6 -6 -4 -4 -5 -6 -7 -7 -7 -7 -7 -7 -7 -6 -6 -6 -6 -6 -6
-4 -5 -5 -5 -5 -6 -5 -4 -4 -3 -3 -3 -3 -3 -2 -2 -2 -2 -2 -2 -3 -4 -4 -4 -4 -4 -5 -6 -6 -6 -6 -6 -7 -7 -7 -7 -7 -7 -7 -6 -6 -7 -6 -6 -6
-5 -5 -5 -5 -6 -6 -6 -5 -5 -4 -4 -4 -4 -3 -3 -2 -2 -3 -3 -2 -2 -3 -3 -3 -3 -4 -6 -7 -7 -6 -6 -7 -8 -8 -8 -8 -7 -6 -7 -7 -6 -7 -7 -7 -6
-5 -5 -6 -5 -6 -6 -6 -6 -6 -5 -3 -6 -4 -3 -4 -2 -3 -3 -3 -2 -1 -2 -3 -2 -3 -5 -5 -6 -7 -7 -7 -7 -7 -8 -8 -8 -7 -7 -7 -7 -7 -7 -7 -7 -6
-6 -6 -6 -6 -6 -6 -7 -7 -6 -6 -4 -5 -5 -5 -4 -3 -3 -3 -4 -3 -2 -2 -3 -3 -4 -6 -6 -6 -7 -7 -7 -7 -8 -8 -7 -7 -7 -7 -7 -7 -7 -7 -7 -6 -7
-6 -6 -6 -6 -7 -7 -7 -7 -7 -6 -6 -7 -6 -5 -5 -3 -5 -4 -4 -4 -4 -3 -3 -2 -3 -5 -5 -5 -7 -7 -8 -8 -8 -8 -7 -7 -7 -7 -8 -7 -7 -7 -7 -7 -7
-7 -6 -7 -7 -7 -7 -7 -8 -7 -7 -7 -8 -8 -7 -6 -6 -5 -5 -5 -5 -5 -4 -3 -3 -4 -6 -6 -6 -7 -7 -8 -8 -8 -7 -8 -7 -7 -7 -7 -7 -7 -7 -7 -7 -8
-7 -7 -7 -7 -7 -7 -7 -8 -8 -6 -9 -9 -9 -9 -7 -7 -7 -6 -6 -5 -5 -5 -3 -3 -4 -6 -6 -6 -7 -7 -8 -8 -8 -7 -7 -7 -7 -6 -6 -7 -7 -7 -7 -7 -8
-8 -7 -8 -8 -7 -8 -8 -8 -7 -7 -9 -10 -10 -10 -9 -8 -8 -8 -8 -7 -6 -6 -4 -3 -4 -6 -6 -5 -7 -7 -8 -8 -8 -7 -8 -7 -7 -4 -7 -7 -7 -7 -7 -7 -8
-8 -8 -8 -8 -8 -9 -8 -8 -7 -9 -10 -11 -10 -10 -10 -10 -10 -10 -9 -8 -7 -6 -5 -4 -4 -6 -6 -6 -7 -8 -7 -7 -7 -7 -8 -8 -8 -7 -7 -7 -7 -7 -7 -7 -7
-9 -9 -8 -9 -9 -9 -9 -8 -8 -9 -10 -10 -11 -10 -10 -11 -11 -12 -11 -9 -9 -8 -7 -6 -5 -6 -6 -7 -7 -7 -7 -8 -7 -7 -7 -7 -7 -7 -7 -7 -7 -7 -7 -7 -7
-10 -10 -9 -9 -10 -9 -9 -9 -9 -10 -11 -11 -11 -11 -10 -11 -11 -12 -10 -10 -10 -9 -9 -7 -6 -6 -6 -6 -6 -8 -7 -7 -7 -7 -7 -6 -6 -7 -7 -7 -7 -7 -7 -7 -7
-11 -11 -11 -10 -10 -10 -9 -10 -10 -10 -11 -11 -11 -11 -11 -12 -12 -12 -11 -10 -10 -10 -10 -8 -7 -7 -6 -6 -6 -7 -7 -7 -8 -7 -7 -7 -6 -7 -7 -7 -7 -8 -8 -8 -7
-12 -12 -11 -11 -11 -11 -11 -10 -10 -10 -11 -11 -10 -11 -12 -11 -11 -11 -12 -10 -10 -10 -9 -9 -8 -7 -8 -7 -7 -7 -7 -7 -8 -8 -8 -7 -7 -6 -7 -8 -8 -8 -8 -8 -7
-13 -13 -12 -12 -12 -12 -11 -11 -11 -10 -11 -11 -11 -11 -11 -11 -10 -10 -10 -10 -10 -10 -10 -10 -9 -8 -6 -6 -7 -8 -8 -8 -8 -7 -7 -7 -7 -7 -7 -7 -7 -7 -7 -7 -7
-14 -14 -14 -13 -13 -13 -12 -12 -12 -11 -11 -12 -11 -11 -11 -11 -9 -11 -11 -10 -11 -10 -10 -10 -10 -9 -7 -7 -8 -8 -7 -7 -8 -8 -8 -7 -8 -7 -8 -7 -7 -8 -8 -8 -6
-15 -15 -15 -15 -14 -14 -13 -13 -12 -12 -12 -12 -12 -12 -11 -11 -10 -10 -11 -9 -11 -10 -10 -9 -9 -9 -8 -8 -8 -8 -8 -8 -8 -8 -8 -8 -7 -8 -8 -8 -8 -8 -8 -8 -8
-18 -17 -17 -16 -15 -15 -14 -13 -13 -13 -13 -13 -12 -12 -12 -11 -11 -11 -10 -10 -11 -10 -10 -10 -9 -9 -9 -8 -8 -8 -8 -8 -8 -7 -8 -8 -8 -8 -8 -8 -8 -8 -8 -8 -8